TimeCDT,TemperatureF,Dew PointF,Humidity,Sea Level PressureIn,VisibilityMPH,Wind Direction,Wind SpeedMPH,Gust SpeedMPH,PrecipitationIn,Events,Conditions,WindDirDegrees,DateUTC
12:10 AM,41.0,32.0,70,29.65,10.0,SW,4.6,-,N/A,,Scattered Clouds,220,2012-10-09 05:10:00
12:30 AM,41.0,32.0,70,29.65,10.0,SSW,5.8,-,N/A,,Clear,210,2012-10-09 05:30:00
12:50 AM,39.2,32.0,75,29.65,10.0,SW,4.6,-,N/A,,Scattered Clouds,220,2012-10-09 05:50:00
1:10 AM,39.2,32.0,75,29.66,10.0,SW,6.9,-,N/A,,Clear,220,2012-10-09 06:10:00
1:30 AM,39.2,32.0,75,29.66,10.0,SW,4.6,-,N/A,,Clear,230,2012-10-09 06:30:00
1:50 AM,37.4,32.0,81,29.66,10.0,Calm,Calm,-,N/A,,Clear,0,2012-10-09 06:50:00
2:10 AM,37.4,32.0,81,29.67,10.0,Calm,Calm,-,N/A,,Clear,0,2012-10-09 07:10:00
2:30 AM,37.4,32.0,81,29.66,10.0,Calm,Calm,-,N/A,,Clear,0,2012-10-09 07:30:00
3:10 AM,37.4,32.0,81,29.65,10.0,Calm,Calm,-,N/A,,Clear,0,2012-10-09 08:10:00
3:30 AM,37.4,32.0,81,29.65,10.0,Calm,Calm,-,N/A,,Clear,0,2012-10-09 08:30:00
3:50 AM,37.4,32.0,81,29.65,10.0,Calm,Calm,-,N/A,,Clear,0,2012-10-09 08:50:00
4:10 AM,37.4,32.0,81,29.65,10.0,Calm,Calm,-,N/A,,Clear,0,2012-10-09 09:10:00
4:30 AM,37.4,32.0,81,29.65,10.0,Calm,Calm,-,N/A,,Scattered Clouds,0,2012-10-09 09:30:00
4:50 AM,35.6,32.0,87,29.65,10.0,Calm,Calm,-,N/A,,Mostly Cloudy,0,2012-10-09 09:50:00
5:10 AM,35.6,32.0,87,29.65,10.0,Calm,Calm,-,N/A,,Mostly Cloudy,0,2012-10-09 10:10:00
5:30 AM,37.4,32.0,81,29.66,10.0,Calm,Calm,-,N/A,,Scattered Clouds,0,2012-10-09 10:30:00
5:50 AM,37.4,32.0,81,29.66,10.0,Calm,Calm,-,N/A,,Scattered Clouds,0,2012-10-09 10:50:00
6:10 AM,37.4,32.0,81,29.66,10.0,Calm,Calm,-,N/A,,Mostly Cloudy,0,2012-10-09 11:10:00
6:30 AM,35.6,32.0,87,29.66,10.0,Calm,Calm,-,N/A,,Mostly Cloudy,0,2012-10-09 11:30:00
6:50 AM,37.4,32.0,81,29.67,10.0,Calm,Calm,-,N/A,,Overcast,0,2012-10-09 11:50:00
7:10 AM,37.4,32.0,81,29.67,10.0,Calm,Calm,-,N/A,,Overcast,0,2012-10-09 12:10:00
7:30 AM,39.2,30.2,70,29.67,10.0,WSW,4.6,-,N/A,,Overcast,250,2012-10-09 12:30:00
7:50 AM,41.0,30.2,65,29.67,10.0,West,5.8,-,N/A,,Overcast,260,2012-10-09 12:50:00
8:10 AM,41.0,28.4,61,29.67,10.0,WSW,5.8,-,N/A,,Overcast,250,2012-10-09 13:10:00
8:30 AM,41.0,28.4,61,29.67,10.0,WSW,5.8,-,N/A,,Mostly Cloudy,250,2012-10-09 13:30:00
8:50 AM,41.0,28.4,61,29.67,10.0,West,8.1,-,N/A,,Scattered Clouds,260,2012-10-09 13:50:00
9:10 AM,41.0,28.4,61,29.67,10.0,WSW,8.1,-,N/A,,Clear,250,2012-10-09 14:10:00
9:30 AM,42.8,28.4,57,29.68,10.0,West,9.2,-,N/A,,Clear,260,2012-10-09 14:30:00
9:50 AM,42.8,26.6,53,29.68,10.0,West,13.8,20.7,N/A,,Clear,270,2012-10-09 14:50:00
10:10 AM,42.8,26.6,53,29.68,10.0,West,15.0,23.0,N/A,,Clear,270,2012-10-09 15:10:00
10:30 AM,42.8,24.8,49,29.69,10.0,West,13.8,18.4,N/A,,Scattered Clouds,260,2012-10-09 15:30:00
10:50 AM,42.8,23.0,46,29.69,10.0,West,10.4,20.7,N/A,,Mostly Cloudy,280,2012-10-09 15:50:00
11:10 AM,42.8,23.0,46,29.69,10.0,WSW,13.8,19.6,N/A,,Overcast,250,2012-10-09 16:10:00
11:50 AM,42.8,21.2,42,29.69,10.0,West,13.8,20.7,N/A,,Overcast,280,2012-10-09 16:50:00
12:10 PM,42.8,21.2,42,29.69,10.0,West,16.1,24.2,N/A,,Overcast,260,2012-10-09 17:10:00
12:30 PM,42.8,21.2,42,29.69,10.0,West,13.8,23.0,N/A,,Overcast,280,2012-10-09 17:30:00
12:50 PM,42.8,21.2,42,29.69,10.0,WSW,16.1,21.9,N/A,,Overcast,250,2012-10-09 17:50:00
1:10 PM,42.8,23.0,46,29.69,10.0,WSW,15.0,19.6,N/A,,Overcast,250,2012-10-09 18:10:00
1:30 PM,42.8,26.6,53,29.69,10.0,West,10.4,19.6,N/A,,Overcast,260,2012-10-09 18:30:00
1:50 PM,44.6,26.6,49,29.69,10.0,West,9.2,18.4,N/A,,Overcast,270,2012-10-09 18:50:00
2:10 PM,42.8,23.0,46,29.70,10.0,West,15.0,23.0,N/A,,Overcast,270,2012-10-09 19:10:00
2:30 PM,44.6,23.0,43,29.70,10.0,WNW,12.7,18.4,N/A,,Overcast,290,2012-10-09 19:30:00
2:50 PM,44.6,23.0,43,29.71,10.0,West,10.4,16.1,N/A,,Overcast,280,2012-10-09 19:50:00
3:10 PM,42.8,24.8,49,29.71,10.0,West,11.5,18.4,N/A,,Overcast,260,2012-10-09 20:10:00
3:30 PM,42.8,26.6,53,29.72,10.0,West,11.5,20.7,N/A,,Overcast,260,2012-10-09 20:30:00
3:50 PM,42.8,28.4,57,29.73,7.0,WNW,15.0,27.6,N/A,,Drizzle,300,2012-10-09 20:50:00
4:10 PM,42.8,30.2,61,29.73,10.0,WNW,11.5,17.3,N/A,,Overcast,290,2012-10-09 21:10:00
4:30 PM,42.8,28.4,57,29.74,10.0,WNW,13.8,20.7,N/A,,Overcast,300,2012-10-09 21:30:00
4:50 PM,41.0,28.4,61,29.75,7.0,NW,17.3,27.6,N/A,,Mostly Cloudy,310,2012-10-09 21:50:00
5:10 PM,41.0,26.6,57,29.76,10.0,NW,9.2,-,N/A,,Mostly Cloudy,320,2012-10-09 22:10:00
5:30 PM,41.0,26.6,57,29.77,10.0,West,12.7,18.4,N/A,,Scattered Clouds,280,2012-10-09 22:30:00
5:50 PM,39.2,26.6,61,29.78,10.0,NW,12.7,19.6,N/A,,Mostly Cloudy,310,2012-10-09 22:50:00
6:10 PM,39.2,26.6,61,29.79,10.0,WNW,13.8,24.2,N/A,,Mostly Cloudy,300,2012-10-09 23:10:00
6:30 PM,37.4,26.6,65,29.80,10.0,WNW,9.2,19.6,N/A,,Scattered Clouds,300,2012-10-09 23:30:00
6:50 PM,37.4,26.6,65,29.81,10.0,WNW,13.8,21.9,N/A,,Clear,300,2012-10-09 23:50:00
7:10 PM,35.6,26.6,70,29.82,10.0,NW,9.2,-,N/A,,Clear,310,2012-10-10 00:10:00
7:30 PM,35.6,23.0,60,29.83,10.0,WNW,10.4,18.4,N/A,,Clear,300,2012-10-10 00:30:00
7:50 PM,35.6,23.0,60,29.84,10.0,WNW,9.2,-,N/A,,Scattered Clouds,300,2012-10-10 00:50:00
8:10 PM,35.6,23.0,60,29.84,10.0,WNW,8.1,-,N/A,,Scattered Clouds,300,2012-10-10 01:10:00
8:30 PM,35.6,23.0,60,29.85,10.0,WNW,8.1,-,N/A,,Mostly Cloudy,290,2012-10-10 01:30:00
8:50 PM,35.6,23.0,60,29.86,10.0,NW,10.4,16.1,N/A,,Overcast,310,2012-10-10 01:50:00
9:10 PM,35.6,23.0,60,29.87,10.0,NW,8.1,-,N/A,,Overcast,320,2012-10-10 02:10:00
9:30 PM,35.6,23.0,60,29.87,10.0,NW,9.2,-,N/A,,Overcast,320,2012-10-10 02:30:00
9:50 PM,35.6,24.8,65,29.87,10.0,NW,6.9,-,N/A,,Overcast,320,2012-10-10 02:50:00
10:10 PM,35.6,24.8,65,29.88,10.0,NW,5.8,-,N/A,,Overcast,310,2012-10-10 03:10:00
10:30 PM,35.6,24.8,65,29.89,10.0,NW,5.8,-,N/A,,Overcast,320,2012-10-10 03:30:00
10:50 PM,35.6,24.8,65,29.89,10.0,WNW,4.6,-,N/A,,Mostly Cloudy,300,2012-10-10 03:50:00
11:10 PM,33.8,24.8,70,29.89,10.0,Calm,Calm,-,N/A,,Scattered Clouds,0,2012-10-10 04:10:00
11:30 PM,33.8,24.8,70,29.89,10.0,Calm,Calm,-,N/A,,Scattered Clouds,0,2012-10-10 04:30:00
11:50 PM,33.8,26.6,75,29.90,10.0,Calm,Calm,-,N/A,,Overcast,0,2012-10-10 04:50:00